Lid_Strength_Index
-0 0 2 4 10 12 14 11 10 9 8 8 6 8 9 8 10 12 2 1 0 0 -0 -1 -2 -2 -2 -2 -2 -2 -2 -2 -2 -2 -2 -2 -2 -2 -2 -2 -2 -2 -2 -2 -2 -2 -2 -2 -2
1 1 4 8 12 15 14 11 10 8 7 7 6 7 8 9 5 4 3 1 -0 -0 -0 -0 -2 -2 -2 -2 -2 -2 -2 -2 -2 -2 -2 -2 -2 -2 -2 -2 -2 -2 -2 -2 -2 -2 -2 -2 -2
1 1 7 10 13 15 13 10 9 8 7 6 8 6 7 8 4 4 1 0 0 -0 -0 -1 -1 -2 -2 -2 -2 -2 -2 -2 -2 -2 -2 -2 -2 -2 -2 -2 -2 -2 -2 -2 -2 -2 -2 -2 -2
2 6 7 11 13 11 11 11 7 7 7 6 7 9 5 3 4 2 1 0 0 -0 -0 -1 -1 -2 -2 -2 -2 -2 -2 -2 -2 -2 -2 -2 -2 -2 -2 -2 -2 -2 -2 -2 -2 -2 -2 -2 -2
4 7 12 13 12 11 10 7 7 8 8 7 7 9 7 3 2 1 1 0 1 0 -0 -1 -1 -2 -2 -2 -2 -2 -2 -2 -2 -2 -2 -2 -2 -2 -2 -2 -2 -2 -2 -2 -2 -2 -2 -2 -3
8 8 14 14 12 10 11 6 7 8 8 7 7 8 7 2 2 1 0 1 -0 0 -0 -1 -1 -1 -2 -2 -2 -2 -2 -2 -2 -2 -2 -2 -2 -2 -2 -2 -2 -2 -2 -2 -2 -2 -2 -2 -3
9 10 13 13 12 11 10 8 7 8 8 8 6 9 6 4 3 1 1 0 0 -0 -0 -0 -0 -1 -1 -1 -2 -2 -2 -2 -2 -2 -2 -2 -2 -2 -2 -2 -2 -2 -2 -2 -2 -2 -2 -2 -2
8 10 11 12 12 12 9 9 7 7 9 5 5 9 9 4 3 1 1 1 1 0 1 0 0 0 0 -0 -1 -1 -2 -2 -2 -2 -2 -1 -1 -1 -2 -1 -2 -2 -2 -2 -2 -2 -2 -3 -3
7 12 13 12 12 11 9 9 8 5 7 7 5 6 4 2 2 2 2 2 1 1 0 0 1 0 -0 -0 -1 -1 -1 -1 -1 -1 -1 -0 -0 -0 -1 -1 -1 -1 -2 -2 -2 -2 -3 -3 -2
9 13 11 9 10 10 8 8 7 7 8 8 7 4 3 3 3 4 4 3 3 2 1 1 -0 -0 -0 -1 -1 -1 -0 0 -0 -0 0 0 -0 -0 -1 -1 -2 -2 -2 -2 -2 -2 -3 -2 1
10 12 9 8 7 8 8 7 6 7 10 7 8 6 4 4 4 4 3 3 3 2 1 0 0 0 -0 -0 0 1 0 1 1 1 1 1 0 0 0 1 1 0 -0 0 -0 0 1 2 2
11 9 7 7 7 7 7 7 8 7 7 5 5 4 4 4 4 4 4 3 2 2 1 0 -0 -0 0 -0 0 0 0 1 1 1 1 1 1 2 2 2 1 1 1 1 1 2 3 3 4
11 9 7 7 7 8 7 7 8 8 6 4 4 4 5 4 4 3 3 2 2 2 1 1 -0 -0 0 -0 0 0 1 2 1 1 1 1 1 2 1 2 2 2 2 2 3 3 4 4 4
9 9 8 8 8 7 8 8 7 8 5 6 5 5 5 4 4 3 4 3 2 2 1 0 0 0 -0 -0 0 0 1 1 1 1 1 1 1 1 1 1 1 1 2 2 3 3 4 4 4
9 10 9 10 8 8 7 10 9 7 6 7 6 5 5 4 3 3 3 3 2 1 1 1 1 1 0 0 -0 0 1 1 1 1 1 1 1 1 1 1 1 1 1 2 3 3 3 4 3
11 10 13 10 8 7 8 12 9 6 7 8 7 6 5 4 4 3 2 2 2 1 1 1 0 0 1 1 0 0 -0 1 1 1 1 -0 0 1 1 1 2 1 1 2 3 3 3 4 4
13 15 14 12 8 8 9 11 8 7 7 8 7 6 5 5 4 3 2 2 2 1 1 1 0 0 0 0 0 1 1 1 0 1 1 1 1 1 1 1 1 1 2 2 2 3 3 5 5
16 15 13 14 11 9 10 10 9 7 8 8 7 7 6 5 5 3 2 2 1 1 1 1 1 0 0 1 1 1 1 1 1 0 1 1 1 1 -0 1 1 1 2 2 2 3 4 5 5
13 14 15 13 9 10 10 10 9 8 8 8 8 7 6 6 4 3 2 2 2 1 1 1 1 1 0 1 2 2 1 1 1 1 -0 0 1 1 -0 2 2 2 2 2 2 3 4 5 5
13 14 14 11 9 10 10 11 9 9 8 8 8 7 7 6 5 4 3 3 2 2 2 1 1 1 1 1 1 2 2 2 2 1 0 -0 -0 1 1 2 2 2 2 3 3 3 4 5 5
14 14 13 13 11 11 11 12 11 9 9 7 7 6 6 6 6 4 4 3 2 2 2 2 1 1 1 1 1 2 2 2 2 2 1 0 -0 0 1 2 2 2 2 3 3 3 4 5 5
15 12 11 12 14 16 12 17 13 10 10 8 8 7 6 6 5 4 4 4 3 2 2 1 1 1 1 1 2 2 2 3 3 2 1 0 -0 0 1 2 2 2 2 3 3 3 4 5 6
14 10 11 12 14 15 15 16 14 11 12 10 9 7 6 5 5 5 4 3 3 2 2 1 1 1 1 1 2 2 3 3 2 2 1 1 1 1 1 1 2 2 3 3 4 4 4 5 6
10 11 11 12 15 18 16 16 16 13 11 10 9 7 6 6 5 5 4 3 3 2 2 2 2 1 1 2 3 3 3 3 2 3 2 2 2 2 2 1 2 2 3 3 4 4 6 6 7
10 12 17 18 19 20 15 16 15 11 9 8 8 8 6 5 5 5 5 4 4 3 2 2 2 2 2 2 3 3 3 3 2 2 2 3 3 3 2 2 2 3 3 3 4 5 6 7 8
13 14 19 24 22 20 16 18 14 11 9 7 6 7 6 6 5 5 5 4 4 3 2 2 2 2 2 3 3 2 3 2 2 2 1 1 1 2 2 2 2 3 3 4 4 6 7 9 10
13 15 12 16 18 19 18 16 12 11 11 11 7 7 8 6 5 5 5 4 4 3 3 2 3 2 3 2 2 2 3 3 2 1 1 1 1 2 2 2 2 3 4 4 5 7 8 9 10
12 11 15 15 18 20 20 18 16 13 11 11 10 8 8 7 6 5 4 4 4 3 3 3 2 2 3 2 2 2 2 2 1 1 2 2 2 1 2 2 2 3 4 5 7 8 8 9 10
13 13 14 13 15 19 20 18 12 12 11 11 11 10 10 8 8 7 6 5 4 4 3 3 2 2 3 2 2 2 2 2 1 2 2 2 2 2 2 2 2 4 5 6 7 9 9 10 10
12 13 13 17 17 15 16 17 12 12 12 10 11 11 11 11 11 11 10 9 7 5 3 3 3 2 2 2 2 2 2 2 2 2 2 2 2 2 2 2 2 3 4 6 8 10 9 10 11